DMSP 5D-2 F13 DEB, 40609

Orbit data source: Space-Track

DMSP 5D-2 F13 DEB, 40609 is space debris in SSO originally from a launch on Fri, 24 Mar 1995 UTC launched from the Air Force Western Test Range (AFWTR). Debris objects in space refer to the collection of defunct objects orbiting the Earth. Examples of debris include non-operational satellites, rocket bodies, and fragments generated from explosions, collisions, or faulty payload assembly.

Loading next visibility...
Identifier
40609, 1995-015FG
Orbit
SSO
Country
Flag of USUS
Related business
Manufacturer
Unknown
Mission
Spacecraft
Bus & Motor
Unknown
Mass
Unknown
Launch date (UTC)
1995-03-24 (31 years ago)
Launch vehicle
Unknown
Launch site
Air Force Western Test Range (AFWTR)
Object type
Payload
Rocket body
Debris
Shape & HBR
Unknown shape, 0.1 m
Radar Cross Section
Small (<0.1 m²)

Expand to show TLE details & history
Last TLE update: 23 hours ago

TLE from 23 hours ago
0 DMSP 5D-2 F13 DEB
1 40609U 95015FG  26118.35777731  .00005503  00000-0  16296-2 0  9996
2 40609  98.6766 161.3196 0006124 140.2682 219.8957 14.43772902572651
Epoch: 2026-04-28T08:35Z
TLE epoch observation values (Epoch: 2026-04-28T08:35:11.959Z)
Latitude
-0.00005°
Longitude
176.18554°
Altitude
752.357 km
Speed
7.477 km/s
True Right ascension
10h 45m 16s
True Declination
0° 00' 00"
Sunlit
Object was in full shadow at epoch
Visualization orbit readout
Latitude
Unknown
Longitude
Unknown
Altitude
Unknown
Speed
Unknown
Apparent Right ascension
Unknown
Apparent Declination
Unknown
Sunlit
N/A
Visualization observer readout
Local Sidereal Time
14:42:39
Azimuth
Unknown
Elevation
Unknown
Doppler factor
Unknown
Orbital elements
Apogee altitude
747.546 km
Perigee altitude
738.824 km
Semi-major axis
7,121.322 km
Eccentricity
0.00061
Inclination
98.6766°
RAAN
161.3196°
Arg. of periapsis
140.2682°
True anomaly
219.85072°
Mean anomaly
219.8957°
Eccentric anomaly
219.87321°
Mean motion
3.61162 °/min
Orbital period
99.68 mins
BSTAR
0.0016296
Loading maneuver chart data...
Computing Atmospheric mass density...

Documentation

Showing up to 5 results
|